Time[GMT],significant_wave_height[m](0m),dominant_wave_period[s](0m)
2014-09-18 02:30, 0.29,4.0
2014-09-18 03:00, 2.07,16.0
2014-09-18 03:30, 2.12,16.0
2014-09-18 04:00, 1.48,16.0
2014-09-18 04:30,,
2014-09-18 05:00, 2.01,16.0
2014-09-18 05:30,,
2014-09-18 06:00,,
2014-09-18 06:30, 1.82,16.0
2014-09-18 07:00, 1.86,16.0
2014-09-18 07:30, 1.89,16.0
2014-09-18 08:00, 1.37,10.7
2014-09-18 08:30, 2.14,16.0
2014-09-18 09:00,,
2014-09-18 09:30, 1.75,16.0
2014-09-18 10:00, 1.46,16.0
2014-09-18 10:30, 1.50,16.0
2014-09-18 11:00, 1.43,10.7
2014-09-18 11:30, 1.85,16.0
2014-09-18 12:00, 1.74,10.7
2014-09-18 12:30, 1.70,10.7
2014-09-18 13:00, 1.18,10.7
2014-09-18 13:30,,
2014-09-18 14:00, 1.58,10.7
2014-09-18 14:30, 1.10,10.7
2014-09-18 15:00, 1.19,10.7
2014-09-18 15:30, 1.03,10.7
2014-09-18 16:00, 0.99,10.7
2014-09-18 16:30, 1.04,10.7
2014-09-18 17:00, 0.95,10.7
2014-09-18 17:30, 1.00,10.7
2014-09-18 18:00, 0.94,10.7
2014-09-18 18:30, 1.06,10.7
2014-09-18 19:00, 0.80,10.7
2014-09-18 19:30, 0.84,10.7
2014-09-18 20:00, 0.16,4.0
2014-09-18 20:30, 0.83,10.7
2014-09-18 21:00, 0.81,10.7
2014-09-18 21:30, 0.87,10.7
2014-09-18 22:00, 0.82,10.7
2014-09-18 22:30, 0.86,10.7
2014-09-18 23:00, 0.87,10.7
2014-09-18 23:30, 0.93,10.7
2014-09-19 00:00, 0.95,10.7
2014-09-19 00:30, 0.93,10.7
2014-09-19 01:00, 0.93,10.7
2014-09-19 01:30, 0.97,10.7
2014-09-19 02:00, 0.97,10.7
2014-09-19 02:30,,
2014-09-19 03:00, 0.62,2.7
2014-09-19 03:30, 1.43,10.7
2014-09-19 04:00, 1.28,10.7
2014-09-19 04:30,,
2014-09-19 05:00,,
2014-09-19 05:30, 1.19,8.0
2014-09-19 06:00, 0.81,4.0
2014-09-19 06:30, 0.80,3.2
2014-09-19 07:00, 0.82,3.2
2014-09-19 07:30, 0.99,4.0
2014-09-19 08:00, 1.02,4.0
2014-09-19 08:30, 1.28,4.6
2014-09-19 09:00, 1.19,5.3
2014-09-19 09:30, 1.17,5.3
2014-09-19 10:00, 1.36,5.3
2014-09-19 10:30, 1.64,5.3
2014-09-19 11:00, 1.51,6.4
2014-09-19 11:30, 1.75,5.3
2014-09-19 12:00, 1.96,5.3
2014-09-19 12:30, 1.98,5.3
2014-09-19 13:00, 1.79,5.3
2014-09-19 13:30, 1.99,6.4
2014-09-19 14:00, 2.15,5.3
2014-09-19 14:30, 2.06,6.4
2014-09-19 15:00, 1.95,5.3
2014-09-19 15:30, 2.01,6.4
2014-09-19 16:00, 2.07,6.4
2014-09-19 16:30, 2.04,5.3
2014-09-19 17:00, 2.08,6.4
2014-09-19 17:30, 2.14,6.4
2014-09-19 18:00, 1.82,6.4
2014-09-19 18:30, 2.00,6.4
2014-09-19 19:00, 1.84,5.3
2014-09-19 19:30, 1.77,6.4
2014-09-19 20:00, 1.96,6.4
2014-09-19 20:30, 1.55,6.4
2014-09-19 21:00, 1.66,6.4
2014-09-19 21:30, 1.54,6.4
2014-09-19 22:00, 1.50,6.4
2014-09-19 22:30, 1.56,6.4
2014-09-19 23:00, 1.21,6.4
2014-09-19 23:30, 1.50,6.4
2014-09-20 00:00, 1.35,6.4
2014-09-20 00:30, 1.24,5.3
2014-09-20 01:00, 1.43,6.4
2014-09-20 01:30, 1.21,6.4
2014-09-20 02:00, 1.25,6.4
2014-09-20 02:30, 1.35,6.4
2014-09-20 03:00, 1.24,5.3
2014-09-20 03:30, 1.44,5.3
2014-09-20 04:00, 1.28,5.3
2014-09-20 04:30, 1.32,5.3
2014-09-20 05:00, 1.19,5.3
2014-09-20 05:30, 1.16,5.3
2014-09-20 06:00, 1.32,5.3
2014-09-20 06:30, 0.86,5.3
2014-09-20 07:00, 1.07,8.0
2014-09-20 07:30, 0.87,5.3
2014-09-20 08:00, 1.10,5.3
2014-09-20 08:30, 0.92,8.0
2014-09-20 09:00, 0.98,10.7
2014-09-20 09:30, 0.60,5.3
2014-09-20 10:00, 0.87,10.7
2014-09-20 10:30, 0.95,10.7
2014-09-20 11:00, 0.90,8.0
2014-09-20 11:30, 0.87,10.7
2014-09-20 12:00, 0.82,8.0
2014-09-20 12:30, 0.63,2.7
2014-09-20 13:00, 0.84,8.0
2014-09-20 13:30, 0.61,3.2
2014-09-20 14:00, 0.95,8.0
2014-09-20 14:30, 1.03,8.0
2014-09-20 15:00, 1.15,10.7
2014-09-20 15:30,,
2014-09-20 16:00, 0.60,4.0
2014-09-20 16:30, 0.61,4.0
2014-09-20 17:00, 0.60,4.0
2014-09-20 17:30, 0.65,4.0
2014-09-20 18:00, 0.59,3.6
2014-09-20 18:30, 0.71,4.0
2014-09-20 19:00, 0.95,4.0
2014-09-20 19:30, 0.95,8.0
2014-09-20 20:00, 0.94,4.0
2014-09-20 20:30, 0.98,10.7
2014-09-20 21:00,,
2014-09-20 21:30, 0.83,8.0
2014-09-20 22:00, 0.83,10.7
2014-09-20 22:30, 0.62,4.0
2014-09-20 23:00, 0.89,4.0
2014-09-20 23:30, 0.63,4.0
2014-09-21 00:00, 0.64,4.0
2014-09-21 00:30, 0.69,4.0
2014-09-21 01:00, 0.67,4.0
2014-09-21 01:30, 0.73,4.6
2014-09-21 02:00, 0.82,4.6
2014-09-21 02:30, 0.84,4.6
2014-09-21 03:00, 0.84,4.6
2014-09-21 03:30, 0.83,5.3
2014-09-21 04:00, 0.86,5.3
2014-09-21 04:30, 0.83,5.3
2014-09-21 05:00, 0.86,5.3
2014-09-21 05:30, 0.81,5.3
2014-09-21 06:00, 0.68,5.3
2014-09-21 06:30, 0.77,5.3
2014-09-21 07:00, 0.89,5.3
2014-09-21 07:30, 0.73,5.3
2014-09-21 08:00, 0.95,10.7
2014-09-21 08:30, 1.02,10.7
2014-09-21 09:00, 0.92,8.0
2014-09-21 09:30, 1.10,5.3
2014-09-21 10:00, 1.00,10.7
2014-09-21 10:30, 0.94,5.3
2014-09-21 11:00, 0.95,5.3
2014-09-21 11:30, 0.97,5.3
2014-09-21 12:00, 1.09,10.7
2014-09-21 12:30,,
2014-09-21 13:00, 0.79,5.3
2014-09-21 13:30, 0.84,6.4
2014-09-21 14:00, 0.87,6.4
2014-09-21 14:30, 0.94,6.4
2014-09-21 15:00, 1.03,6.4
2014-09-21 15:30, 1.01,5.3
2014-09-21 16:00, 1.10,6.4
2014-09-21 16:30, 0.89,5.3
2014-09-21 17:00, 1.15,6.4
2014-09-21 17:30, 1.06,5.3
2014-09-21 18:00, 1.23,6.4
2014-09-21 18:30, 1.35,6.4
2014-09-21 19:00, 1.14,8.0
2014-09-21 19:30, 1.08,5.3
2014-09-21 20:00, 1.16,6.4
2014-09-21 20:30, 1.05,5.3
2014-09-21 21:00, 1.22,5.3
2014-09-21 21:30, 0.99,5.3
2014-09-21 22:00, 1.09,5.3
2014-09-21 22:30, 1.22,5.3
2014-09-21 23:00, 1.23,5.3
2014-09-21 23:30, 1.34,5.3
2014-09-22 00:00, 1.38,6.4
2014-09-22 00:30, 1.51,6.4
2014-09-22 01:00, 2.04,6.4
2014-09-22 01:30, 2.19,8.0
2014-09-22 02:00, 2.25,8.0
2014-09-22 02:30, 2.35,8.0
2014-09-22 03:00, 2.33,8.0
2014-09-22 03:30, 2.44,8.0
2014-09-22 04:00, 2.42,8.0
2014-09-22 04:30, 2.67,8.0
2014-09-22 05:00, 3.36,8.0
2014-09-22 05:30, 3.62,8.0
2014-09-22 06:00, 4.39,10.7
2014-09-22 06:30, 4.26,10.7
2014-09-22 07:00, 4.67,10.7
2014-09-22 07:30, 4.81,10.7
2014-09-22 08:00, 5.21,10.7
2014-09-22 08:30, 5.38,10.7
2014-09-22 09:00, 5.21,10.7
2014-09-22 09:30, 6.40,10.7
2014-09-22 10:00, 5.73,10.7
2014-09-22 10:30, 4.94,10.7
2014-09-22 11:00, 4.08,10.7
2014-09-22 11:30, 6.34,10.7
2014-09-22 12:00,,
2014-09-22 12:30, 4.98,10.7
2014-09-22 13:00, 5.02,10.7
2014-09-22 13:30, 5.07,10.7
2014-09-22 14:00, 4.76,10.7
2014-09-22 14:30, 4.25,10.7
2014-09-22 15:00, 4.91,10.7
2014-09-22 15:30, 4.44,10.7
2014-09-22 16:00, 4.65,10.7
2014-09-22 16:30, 4.38,10.7
2014-09-22 17:00, 4.76,10.7
2014-09-22 17:30, 4.37,10.7
2014-09-22 18:00, 3.92,10.7
2014-09-22 18:30, 3.98,10.7
2014-09-22 19:00,,
2014-09-22 19:30, 3.50,10.7
2014-09-22 20:00, 4.03,10.7
2014-09-22 20:30,,
2014-09-22 21:00, 3.78,10.7
2014-09-22 21:30, 4.68,10.7
2014-09-22 22:00, 3.88,10.7
2014-09-22 22:30, 4.34,10.7
2014-09-22 23:00, 4.10,10.7
2014-09-22 23:30, 3.46,10.7
2014-09-23 00:00, 3.42,10.7
2014-09-23 00:30, 3.57,10.7
2014-09-23 01:00, 3.28,10.7
2014-09-23 01:30, 3.46,10.7
2014-09-23 02:00, 2.94,10.7
2014-09-23 02:30, 3.36,10.7
2014-09-23 03:00, 3.34,10.7
2014-09-23 03:30, 3.36,10.7
2014-09-23 04:00, 2.95,10.7
2014-09-23 04:30, 3.12,10.7
2014-09-23 05:00, 2.95,10.7
2014-09-23 05:30, 3.06,10.7
2014-09-23 06:00, 3.03,10.7
2014-09-23 06:30, 2.71,10.7
2014-09-23 07:00, 3.05,10.7
2014-09-23 07:30, 2.48,10.7
2014-09-23 08:00, 2.57,10.7
2014-09-23 08:30, 2.60,10.7
2014-09-23 09:00, 2.49,10.7
2014-09-23 09:30, 2.69,10.7
2014-09-23 10:00, 2.69,10.7
2014-09-23 10:30, 3.06,10.7
2014-09-23 11:00, 2.65,10.7
2014-09-23 11:30, 2.78,10.7
2014-09-23 12:00, 2.37,8.0
2014-09-23 12:30, 2.53,10.7
2014-09-23 13:00, 2.33,10.7
2014-09-23 13:30, 2.13,10.7
2014-09-23 14:00, 2.33,8.0
2014-09-23 14:30, 2.34,10.7
2014-09-23 15:00, 2.58,6.4
2014-09-23 15:30, 2.27,10.7
2014-09-23 16:00, 2.60,8.0
2014-09-23 16:30, 2.42,6.4
2014-09-23 17:00, 2.78,8.0
2014-09-23 17:30, 2.38,6.4
2014-09-23 18:00, 2.30,10.7
2014-09-23 18:30, 2.01,6.4
2014-09-23 19:00, 2.36,8.0
2014-09-23 19:30, 2.42,6.4
2014-09-23 20:00, 1.96,6.4
2014-09-23 20:30, 2.12,6.4
2014-09-23 21:00, 1.97,10.7
2014-09-23 21:30, 2.13,10.7
2014-09-23 22:00, 1.77,6.4
2014-09-23 22:30, 2.05,8.0
2014-09-23 23:00, 1.75,8.0
2014-09-23 23:30, 2.22,10.7
2014-09-24 00:00, 1.59,8.0
2014-09-24 00:30, 2.05,10.7
2014-09-24 01:00, 1.65,6.4
2014-09-24 01:30, 1.64,6.4
2014-09-24 02:00, 1.48,8.0
2014-09-24 02:30, 1.51,8.0
2014-09-24 03:00, 1.34,6.4
2014-09-24 03:30, 1.33,5.3
2014-09-24 04:00, 1.43,8.0
2014-09-24 04:30, 1.56,5.3
2014-09-24 05:00, 1.32,5.3
2014-09-24 05:30, 1.49,5.3
2014-09-24 06:00, 1.46,8.0
2014-09-24 06:30, 1.42,8.0
2014-09-24 07:00, 1.29,5.3
2014-09-24 07:30, 1.48,10.7
2014-09-24 08:00, 1.38,8.0
2014-09-24 08:30, 1.35,8.0
2014-09-24 09:00, 1.41,8.0
2014-09-24 09:30, 1.42,8.0
2014-09-24 10:00, 1.30,8.0
2014-09-24 10:30, 1.50,8.0
2014-09-24 11:00, 1.31,8.0
2014-09-24 11:30, 1.25,8.0
2014-09-24 12:00, 1.17,8.0
2014-09-24 12:30, 1.30,10.7
2014-09-24 13:00, 1.07,8.0
2014-09-24 13:30, 0.99,8.0
2014-09-24 14:00, 0.86,4.6
2014-09-24 14:30, 0.84,8.0
2014-09-24 15:00, 0.90,8.0
2014-09-24 15:30, 1.00,8.0
2014-09-24 16:00, 0.86,4.6
2014-09-24 16:30, 0.84,4.6
2014-09-24 17:00, 0.86,4.6
2014-09-24 17:30, 0.85,4.6
2014-09-24 18:00, 0.91,4.6
2014-09-24 18:30, 1.04,4.6
2014-09-24 19:00, 0.89,4.6
2014-09-24 19:30, 0.86,4.6
2014-09-24 20:00, 1.02,4.6
2014-09-24 20:30, 0.97,4.6
2014-09-24 21:00, 0.91,8.0
2014-09-24 21:30, 0.93,4.0
2014-09-24 22:00, 1.03,8.0
2014-09-24 22:30, 1.09,8.0
2014-09-24 23:00, 0.91,8.0
2014-09-24 23:30, 0.90,8.0
2014-09-25 00:00, 0.97,8.0
2014-09-25 00:30, 0.86,8.0
2014-09-25 01:00, 0.86,8.0
2014-09-25 01:30, 0.80,8.0
2014-09-25 02:00, 0.71,8.0
2014-09-25 02:30, 0.79,8.0
2014-09-25 03:00, 0.83,8.0
2014-09-25 03:30, 0.70,8.0
2014-09-25 04:00, 0.80,6.4
2014-09-25 04:30, 0.74,6.4
2014-09-25 05:00, 0.69,6.4
2014-09-25 05:30, 0.74,8.0
2014-09-25 06:00, 0.82,6.4
2014-09-25 06:30, 0.83,8.0
2014-09-25 07:00, 0.91,8.0
2014-09-25 07:30, 0.85,5.3
2014-09-25 08:00, 0.92,8.0
2014-09-25 08:30, 0.86,8.0
2014-09-25 09:00, 0.81,8.0
2014-09-25 09:30, 0.88,8.0
2014-09-25 10:00, 0.60,4.6
2014-09-25 10:30, 0.77,4.6
2014-09-25 11:00, 0.83,8.0
2014-09-25 11:30, 0.71,4.6
2014-09-25 12:00, 0.73,8.0
2014-09-25 12:30, 0.63,8.0
2014-09-25 13:00, 0.53,8.0
2014-09-25 13:30, 0.61,10.7
2014-09-25 14:00, 0.62,10.7
2014-09-25 14:30, 0.65,8.0
2014-09-25 15:00, 0.58,8.0
2014-09-25 15:30, 0.59,8.0
2014-09-25 16:00, 0.65,8.0
2014-09-25 16:30,,
2014-09-25 17:00, 0.69,8.0
2014-09-25 17:30, 0.67,8.0
2014-09-25 18:00, 0.72,8.0
2014-09-25 18:30, 0.66,8.0
2014-09-25 19:00, 0.65,8.0
2014-09-25 19:30, 0.68,8.0
2014-09-25 20:00, 0.67,8.0
2014-09-25 20:30, 0.70,8.0
2014-09-25 21:00, 0.69,8.0
2014-09-25 21:30, 0.69,8.0
2014-09-25 22:00, 0.72,8.0
2014-09-25 22:30, 0.74,8.0
2014-09-25 23:00, 0.80,8.0
2014-09-25 23:30, 0.80,8.0
2014-09-26 00:00, 0.86,8.0
2014-09-26 00:30, 0.85,8.0
2014-09-26 01:00, 0.59,6.4
2014-09-26 01:30, 0.76,8.0
2014-09-26 02:00, 0.76,10.7
2014-09-26 02:30, 0.70,10.7
2014-09-26 03:00, 0.73,8.0
2014-09-26 03:30, 0.69,6.4
2014-09-26 04:00, 0.73,8.0
2014-09-26 04:30, 0.71,8.0
2014-09-26 05:00, 0.78,6.4
2014-09-26 05:30, 0.89,8.0
2014-09-26 06:00, 0.74,8.0
2014-09-26 06:30, 0.74,8.0
2014-09-26 07:00, 0.62,8.0
2014-09-26 07:30, 0.66,8.0
2014-09-26 08:00, 0.63,8.0
2014-09-26 08:30, 0.68,8.0
2014-09-26 09:00, 0.76,8.0
2014-09-26 09:30, 0.77,8.0
2014-09-26 10:00, 0.42,2.7
2014-09-26 10:30, 0.92,8.0
2014-09-26 11:00, 0.94,8.0
2014-09-26 11:30, 1.00,8.0
2014-09-26 12:00, 1.00,8.0
2014-09-26 12:30, 0.65,2.7
2014-09-26 13:00, 0.87,6.4
2014-09-26 13:30, 0.50,3.2
2014-09-26 14:00, 0.90,8.0
2014-09-26 14:30, 0.86,6.4
2014-09-26 15:00, 0.94,8.0
2014-09-26 15:30, 1.00,6.4
2014-09-26 16:00, 0.95,8.0
2014-09-26 16:30, 1.10,8.0
2014-09-26 17:00, 1.05,8.0
2014-09-26 17:30, 0.72,4.0
2014-09-26 18:00, 0.55,3.6
2014-09-26 18:30, 1.08,8.0
2014-09-26 19:00, 0.94,6.4
2014-09-26 19:30, 0.99,8.0
2014-09-26 20:00, 0.95,8.0
2014-09-26 20:30, 1.12,8.0
2014-09-26 21:00,,
2014-09-26 21:30, 1.01,8.0
2014-09-26 22:00, 1.04,8.0
2014-09-26 22:30, 1.09,8.0
2014-09-26 23:00, 1.09,8.0
2014-09-26 23:30, 1.21,8.0
2014-09-27 00:00, 1.06,8.0
2014-09-27 00:30, 1.03,8.0
2014-09-27 01:00, 1.19,8.0
2014-09-27 01:30, 1.08,8.0
2014-09-27 02:00, 1.02,6.4
2014-09-27 02:30, 1.04,8.0
2014-09-27 03:00, 1.09,8.0
2014-09-27 03:30, 1.14,6.4
2014-09-27 04:00, 1.09,8.0
2014-09-27 04:30, 1.08,8.0
2014-09-27 05:00, 1.14,8.0
2014-09-27 05:30, 1.13,8.0
2014-09-27 06:00, 1.12,8.0
2014-09-27 06:30, 1.21,8.0
2014-09-27 07:00, 1.30,8.0
2014-09-27 07:30, 1.35,8.0
2014-09-27 08:00, 1.11,8.0
2014-09-27 08:30, 1.16,8.0
2014-09-27 09:00, 1.11,8.0
2014-09-27 09:30, 1.30,8.0
2014-09-27 10:00, 1.29,8.0
2014-09-27 10:30, 1.24,8.0
2014-09-27 11:00, 1.29,8.0
2014-09-27 11:30, 1.26,8.0
2014-09-27 12:00, 1.05,8.0
2014-09-27 12:30, 1.02,8.0
2014-09-27 13:00, 0.86,8.0
2014-09-27 13:30, 0.84,8.0
2014-09-27 14:00, 0.83,8.0
2014-09-27 14:30, 0.89,8.0
2014-09-27 15:00, 0.83,8.0
2014-09-27 15:30, 0.84,8.0
2014-09-27 16:00, 0.83,10.7
2014-09-27 16:30, 0.79,8.0
2014-09-27 17:00, 0.82,8.0
2014-09-27 17:30, 0.76,6.4
2014-09-27 18:00,,
2014-09-27 18:30, 0.99,10.7
2014-09-27 19:00, 0.80,8.0
2014-09-27 19:30,,
2014-09-27 20:00, 0.50,2.5
2014-09-27 20:30, 0.77,8.0
2014-09-27 21:00, 0.50,2.5
2014-09-27 21:30, 0.79,8.0
2014-09-27 22:00, 0.85,8.0
2014-09-27 22:30, 0.91,8.0
2014-09-27 23:00, 0.92,8.0
2014-09-27 23:30, 0.93,8.0
2014-09-28 00:00, 0.82,8.0
2014-09-28 00:30, 0.86,8.0
2014-09-28 01:00, 0.80,8.0
2014-09-28 01:30, 0.69,8.0
2014-09-28 02:00, 0.68,6.4
2014-09-28 02:30, 0.78,8.0
2014-09-28 03:00, 0.67,8.0
2014-09-28 03:30, 0.61,8.0
2014-09-28 04:00, 0.66,8.0
2014-09-28 04:30, 0.70,10.7
2014-09-28 05:00, 0.58,10.7
2014-09-28 05:30, 0.71,8.0
2014-09-28 06:00, 0.58,10.7
2014-09-28 06:30, 0.65,8.0
2014-09-28 07:00, 0.83,8.0
2014-09-28 07:30, 0.57,8.0
2014-09-28 08:00, 0.57,8.0
2014-09-28 08:30, 0.60,8.0
2014-09-28 09:00, 0.60,8.0
2014-09-28 09:30, 0.61,8.0
2014-09-28 10:00, 0.66,8.0
2014-09-28 10:30, 0.69,8.0
2014-09-28 11:00, 0.63,8.0
2014-09-28 11:30, 0.70,8.0
2014-09-28 12:00, 0.61,8.0
2014-09-28 12:30, 0.58,8.0
2014-09-28 13:00, 0.51,8.0
2014-09-28 13:30, 0.60,8.0
2014-09-28 14:00, 0.54,6.4
2014-09-28 14:30, 0.48,8.0
2014-09-28 15:00, 0.46,8.0
2014-09-28 15:30, 0.47,8.0
2014-09-28 16:00, 0.60,8.0
2014-09-28 16:30, 0.57,8.0
2014-09-28 17:00, 0.59,8.0
2014-09-28 17:30, 0.63,8.0
2014-09-28 18:00, 0.52,8.0
2014-09-28 18:30, 0.53,8.0
2014-09-28 19:00, 0.59,8.0
2014-09-28 19:30, 0.61,8.0
2014-09-28 20:00, 0.54,8.0
2014-09-28 20:30, 0.74,10.7
2014-09-28 21:00, 0.68,10.7
2014-09-28 21:30, 0.61,8.0
2014-09-28 22:00, 0.67,8.0
2014-09-28 22:30, 0.62,8.0
2014-09-28 23:00, 0.75,8.0
2014-09-28 23:30, 0.60,8.0
2014-09-29 00:00, 0.66,8.0
2014-09-29 00:30, 0.66,8.0
2014-09-29 01:00, 0.70,8.0
2014-09-29 01:30, 0.71,6.4
2014-09-29 02:00, 0.69,8.0
2014-09-29 02:30, 0.66,8.0
2014-09-29 03:00, 0.66,8.0
2014-09-29 03:30, 0.69,8.0
2014-09-29 04:00, 0.47,4.6
2014-09-29 04:30, 0.50,2.7
2014-09-29 05:00, 0.63,8.0
2014-09-29 05:30, 0.39,2.9
2014-09-29 06:00, 0.65,8.0
2014-09-29 06:30, 0.76,8.0
2014-09-29 07:00, 0.62,2.9
2014-09-29 07:30, 0.91,2.9
2014-09-29 08:00, 0.64,2.9
2014-09-29 08:30, 0.62,3.2
2014-09-29 09:00, 0.67,2.7
2014-09-29 09:30, 0.68,3.2
2014-09-29 10:00, 0.70,3.2
2014-09-29 10:30, 0.74,3.2
2014-09-29 11:00, 0.85,8.0
2014-09-29 11:30, 0.88,8.0
2014-09-29 12:00, 0.86,3.6
2014-09-29 12:30, 0.73,4.6
2014-09-29 13:00, 0.85,3.6
2014-09-29 13:30, 0.75,8.0
2014-09-29 14:00, 0.65,4.0
2014-09-29 14:30, 0.65,4.0
2014-09-29 15:00, 0.74,4.0
2014-09-29 15:30, 0.68,8.0
2014-09-29 16:00, 0.57,4.0
2014-09-29 16:30, 0.58,4.6
2014-09-29 17:00, 0.59,4.0
2014-09-29 17:30, 0.65,4.6
2014-09-29 18:00, 0.47,4.0
2014-09-29 18:30, 0.58,4.6
2014-09-29 19:00, 0.63,8.0
2014-09-29 19:30, 0.61,4.0
2014-09-29 20:00, 0.62,4.6
2014-09-29 20:30, 0.70,4.6
2014-09-29 21:00, 0.63,8.0
2014-09-29 21:30, 0.61,8.0
2014-09-29 22:00, 0.45,4.6
2014-09-29 22:30, 0.52,8.0
2014-09-29 23:00, 0.50,8.0
2014-09-29 23:30, 0.39,4.6
2014-09-30 00:00, 0.56,8.0
2014-09-30 00:30, 0.56,8.0
2014-09-30 01:00, 0.39,4.0
2014-09-30 01:30, 0.52,8.0
2014-09-30 02:00, 0.51,8.0
2014-09-30 02:30, 0.61,6.4
2014-09-30 03:00, 0.72,6.4
2014-09-30 03:30, 0.76,5.3
2014-09-30 04:00, 0.93,6.4
2014-09-30 04:30, 0.94,6.4
2014-09-30 05:00, 1.09,6.4
2014-09-30 05:30, 1.04,6.4
2014-09-30 06:00, 1.04,6.4
2014-09-30 06:30, 1.05,6.4
2014-09-30 07:00, 0.94,6.4
2014-09-30 07:30, 1.12,6.4
2014-09-30 08:00, 1.16,6.4
2014-09-30 08:30, 1.12,6.4
2014-09-30 09:00, 1.31,6.4
2014-09-30 09:30, 1.41,6.4
2014-09-30 10:00, 1.79,8.0
2014-09-30 10:30, 1.68,6.4
2014-09-30 11:00, 1.62,6.4
2014-09-30 11:30, 1.59,6.4
2014-09-30 12:00, 1.65,6.4
2014-09-30 12:30, 1.74,8.0
2014-09-30 13:00, 1.48,8.0
2014-09-30 13:30, 1.46,6.4
2014-09-30 14:00, 1.67,8.0
2014-09-30 14:30, 1.70,8.0
2014-09-30 15:00, 1.59,8.0
2014-09-30 15:30, 1.47,8.0
2014-09-30 16:00, 1.31,8.0
2014-09-30 16:30, 1.08,8.0
2014-09-30 17:00, 1.08,8.0
2014-09-30 17:30, 1.16,8.0
2014-09-30 18:00, 1.00,8.0
2014-09-30 18:30, 0.93,8.0
2014-09-30 19:00, 0.89,8.0
2014-09-30 19:30, 1.00,8.0
2014-09-30 20:00, 0.96,8.0
2014-09-30 20:30, 1.18,8.0
2014-09-30 21:00, 1.12,8.0
2014-09-30 21:30, 1.09,8.0
2014-09-30 22:00, 1.08,6.4
2014-09-30 22:30, 1.10,8.0
2014-09-30 23:00, 1.17,8.0
2014-09-30 23:30, 1.08,6.4
2014-10-01 00:00, 1.16,6.4
2014-10-01 00:30, 1.31,6.4
2014-10-01 01:00, 1.40,6.4
2014-10-01 01:30, 1.32,6.4
2014-10-01 02:00, 1.30,6.4
2014-10-01 02:30, 1.27,5.3
2014-10-01 03:00, 1.30,6.4
2014-10-01 03:30, 1.19,4.6
2014-10-01 04:00, 1.15,4.6
2014-10-01 04:30, 1.34,4.6
2014-10-01 05:00, 1.00,4.0
2014-10-01 05:30, 1.14,4.6
2014-10-01 06:00, 1.20,4.6
2014-10-01 06:30, 1.13,4.6
2014-10-01 07:00, 1.27,5.3
2014-10-01 07:30, 1.32,6.4
2014-10-01 08:00, 1.45,5.3
2014-10-01 08:30, 1.53,5.3
2014-10-01 09:00, 1.48,5.3
2014-10-01 09:30, 1.49,5.3
2014-10-01 10:00, 1.69,6.4
2014-10-01 10:30, 1.68,5.3
2014-10-01 11:00, 1.87,6.4
2014-10-01 11:30, 1.53,5.3
2014-10-01 12:00, 1.73,5.3
2014-10-01 12:30, 1.72,5.3
2014-10-01 13:00, 1.80,5.3
2014-10-01 13:30, 2.03,5.3
2014-10-01 14:00, 1.97,5.3
2014-10-01 14:30, 1.92,6.4
2014-10-01 15:00, 2.07,6.4
2014-10-01 16:00, 2.07,6.4
2014-10-01 16:30, 1.96,5.3
2014-10-01 17:00, 2.08,6.4
2014-10-01 17:30, 2.21,6.4
2014-10-01 18:00, 2.45,6.4
2014-10-01 18:30, 2.17,6.4
2014-10-01 19:00, 2.66,8.0
2014-10-01 19:30, 3.05,8.0
2014-10-01 20:00, 3.28,8.0
2014-10-01 20:30, 2.95,8.0
2014-10-01 21:00, 2.55,8.0
2014-10-01 21:30, 2.86,8.0
2014-10-01 22:00, 2.57,8.0
2014-10-01 22:30, 2.81,8.0
2014-10-01 23:00, 2.70,8.0
2014-10-01 23:30, 2.99,8.0
2014-10-02 00:00, 2.83,8.0
2014-10-02 00:30, 3.20,8.0
2014-10-02 01:00, 3.20,8.0
2014-10-02 01:30, 4.28,8.0
2014-10-02 02:00, 3.63,8.0
2014-10-02 02:30, 3.66,8.0
2014-10-02 03:00, 3.18,8.0
2014-10-02 03:30, 3.77,8.0
2014-10-02 04:00, 3.27,8.0
2014-10-02 04:30, 3.52,8.0
2014-10-02 05:00, 3.58,8.0
2014-10-02 05:30, 3.43,8.0
2014-10-02 06:00, 3.05,10.7
2014-10-02 06:30, 3.60,8.0
2014-10-02 07:00, 3.56,8.0
2014-10-02 07:30, 4.24,10.7
2014-10-02 08:00, 3.92,8.0
2014-10-02 08:30, 3.81,10.7
2014-10-02 09:00, 4.24,10.7
2014-10-02 09:30, 4.00,10.7
2014-10-02 10:00, 4.21,8.0
2014-10-02 10:30, 3.80,10.7
2014-10-02 11:00, 3.33,8.0
2014-10-02 11:30, 4.18,10.7
2014-10-02 12:00, 4.11,8.0
2014-10-02 12:30, 4.38,8.0
2014-10-02 13:00,,
2014-10-02 13:30, 4.32,10.7
2014-10-02 14:00, 4.59,8.0
2014-10-02 14:30, 4.73,10.7
2014-10-02 15:00, 4.16,10.7
2014-10-02 15:30, 4.56,10.7
2014-10-02 16:00, 4.04,10.7
2014-10-02 16:30, 4.41,10.7
2014-10-02 17:00, 4.10,10.7
2014-10-02 17:30, 3.92,10.7
2014-10-02 18:00, 4.29,8.0
2014-10-02 18:30, 4.03,10.7
2014-10-02 19:00, 4.56,10.7
2014-10-02 19:30, 4.52,10.7
2014-10-02 20:00, 4.04,10.7
2014-10-02 20:30, 4.19,8.0
2014-10-02 21:00, 4.98,10.7
2014-10-02 21:30, 4.72,10.7
2014-10-02 22:00, 4.88,10.7
2014-10-02 22:30, 4.92,10.7
2014-10-02 23:00, 4.40,10.7
2014-10-02 23:30, 5.16,8.0
2014-10-03 00:00, 4.49,10.7
2014-10-03 00:30, 4.63,10.7
2014-10-03 01:00, 4.86,10.7
2014-10-03 01:30, 4.64,10.7
2014-10-03 02:00, 5.38,10.7
2014-10-03 02:30, 5.48,10.7
2014-10-03 03:00, 5.19,10.7
2014-10-03 03:30, 4.86,10.7
2014-10-03 04:00, 4.98,10.7
2014-10-03 04:30, 5.23,10.7
2014-10-03 05:00, 4.85,10.7
2014-10-03 05:30, 5.08,10.7
2014-10-03 06:00, 4.39,10.7
2014-10-03 06:30, 4.82,10.7
2014-10-03 07:00, 4.58,10.7
2014-10-03 07:30, 5.05,10.7
2014-10-03 08:00, 5.10,10.7
2014-10-03 08:30, 4.59,10.7
2014-10-03 09:00, 4.80,10.7
2014-10-03 09:30, 4.76,10.7
2014-10-03 10:00, 5.43,10.7
2014-10-03 10:30, 5.09,10.7
2014-10-03 11:00, 5.58,10.7
2014-10-03 11:30, 5.28,10.7
2014-10-03 12:00, 5.57,10.7
2014-10-03 12:30,,
2014-10-03 13:00, 5.28,10.7
2014-10-03 13:30, 5.19,10.7
2014-10-03 14:00, 4.84,10.7
2014-10-03 14:30, 4.52,10.7
2014-10-03 15:00, 6.31,10.7
2014-10-03 15:30,,
2014-10-03 16:00, 5.73,10.7
2014-10-03 16:30,,
2014-10-03 17:00, 4.56,10.7
2014-10-03 17:30, 4.92,10.7
2014-10-03 18:00, 4.90,10.7
2014-10-03 18:30, 4.69,10.7
2014-10-03 19:00, 5.24,10.7
2014-10-03 19:30, 5.06,10.7
2014-10-03 20:00,,
2014-10-03 20:30, 4.04,10.7
2014-10-03 21:00, 4.46,10.7
2014-10-03 21:30, 4.41,10.7
2014-10-03 22:00, 4.46,10.7
2014-10-03 22:30, 4.85,10.7
2014-10-03 23:00, 4.45,10.7
2014-10-03 23:30, 4.83,10.7
2014-10-04 00:00, 4.89,10.7
2014-10-04 00:30, 4.79,10.7
2014-10-04 01:00, 4.46,10.7
2014-10-04 01:30, 4.41,10.7
2014-10-04 02:00, 4.77,10.7
2014-10-04 02:30, 4.40,10.7
2014-10-04 03:00, 4.46,10.7
2014-10-04 03:30, 4.32,10.7
2014-10-04 04:00, 4.07,10.7
2014-10-04 04:30, 4.34,10.7
2014-10-04 05:00, 3.89,10.7
2014-10-04 05:30, 3.74,10.7
2014-10-04 06:00, 3.98,10.7
2014-10-04 06:30, 3.42,10.7
2014-10-04 07:00, 2.77,10.7
2014-10-04 07:30, 2.84,10.7
2014-10-04 08:00, 2.87,10.7
2014-10-04 08:30, 3.12,10.7
2014-10-04 09:00, 2.79,10.7
2014-10-04 09:30, 3.15,10.7
2014-10-04 10:00, 2.97,10.7
2014-10-04 10:30, 3.55,10.7
2014-10-04 11:00, 3.52,10.7
2014-10-04 11:30, 3.48,10.7
2014-10-04 12:00, 3.42,10.7
2014-10-04 12:30, 2.95,10.7
2014-10-04 13:00, 3.31,10.7
2014-10-04 13:30, 3.38,10.7
2014-10-04 14:00, 2.99,10.7
2014-10-04 14:30, 3.30,10.7
2014-10-04 15:00, 3.08,10.7
2014-10-04 15:30, 2.96,10.7
2014-10-04 16:00, 3.99,10.7
2014-10-04 16:30,,
2014-10-04 17:00, 2.89,10.7
2014-10-04 17:30, 3.26,8.0
2014-10-04 18:00, 2.76,8.0
2014-10-04 18:30, 2.97,10.7
2014-10-04 19:00, 3.30,10.7
2014-10-04 19:30, 2.59,10.7
2014-10-04 20:00, 2.30,10.7
2014-10-04 20:30, 2.77,10.7
2014-10-04 21:00, 2.35,10.7
2014-10-04 21:30, 2.55,10.7
2014-10-04 22:00, 2.36,10.7
2014-10-04 22:30, 2.59,10.7
2014-10-04 23:00, 2.60,10.7
2014-10-04 23:30, 2.74,10.7
2014-10-05 00:00, 2.56,10.7
2014-10-05 00:30, 2.51,10.7
2014-10-05 01:00, 2.62,10.7
2014-10-05 01:30, 2.14,10.7
2014-10-05 02:00, 2.97,10.7
2014-10-05 02:30, 2.21,10.7
2014-10-05 03:00, 2.54,10.7
2014-10-05 03:30, 3.11,10.7
2014-10-05 04:00, 3.07,10.7
2014-10-05 04:30, 3.20,8.0
2014-10-05 05:00, 2.94,8.0
2014-10-05 05:30, 2.96,10.7
2014-10-05 06:00, 3.21,10.7
2014-10-05 06:30, 3.11,8.0
2014-10-05 07:00, 3.13,10.7
2014-10-05 07:30, 2.82,10.7
2014-10-05 08:00, 3.07,10.7
2014-10-05 08:30, 2.50,10.7
2014-10-05 09:00, 2.57,10.7
2014-10-05 09:30, 2.87,10.7
2014-10-05 10:00, 2.68,10.7
2014-10-05 10:30, 2.66,10.7
2014-10-05 11:00, 2.26,10.7
2014-10-05 11:30, 2.44,10.7
2014-10-05 12:00, 1.83,8.0
2014-10-05 12:30, 2.52,10.7
2014-10-05 13:00, 2.49,10.7
2014-10-05 13:30, 2.43,10.7
2014-10-05 14:00, 2.41,10.7
2014-10-05 14:30, 3.00,10.7
2014-10-05 15:00, 2.57,10.7
2014-10-05 15:30, 2.93,10.7
2014-10-05 16:00, 3.00,10.7
2014-10-05 16:30, 2.86,10.7
2014-10-05 17:00, 2.97,10.7
2014-10-05 17:30, 3.03,10.7
2014-10-05 18:00, 2.65,8.0
2014-10-05 18:30, 2.76,10.7
2014-10-05 19:00, 2.26,10.7
2014-10-05 19:30, 2.70,10.7
2014-10-05 20:00, 2.35,8.0